COSMOS 1275 DEB, 14364

Orbit data source: Space-Track

COSMOS 1275 DEB, 14364 is space debris in LEO originally from a launch on Thu, 04 Jun 1981 UTC launched from the Plesetsk Missile And Space Complex (PKMTR). Debris objects in space refer to the collection of defunct objects orbiting the Earth. Examples of debris include non-operational satellites, rocket bodies, and fragments generated from explosions, collisions, or faulty payload assembly.

Loading next visibility...
Identifier
14364, 1981-053HX
Orbit
LEO
Country
Flag of CISCIS
Related business
Manufacturer
Unknown
Mission
Spacecraft
Bus & Motor
Unknown
Mass
Unknown
Launch date (UTC)
1981-06-04 (44 years ago)
Launch vehicle
Unknown
Launch site
Plesetsk Missile And Space Complex (PKMTR)
Object type
Payload
Rocket body
Debris
Shape & HBR
Unknown shape, 0.1 m
Radar Cross Section
Small (<0.1 m²)

Expand to show TLE details & history
Last TLE update: 9 hours ago

TLE from 9 hours ago
0 COSMOS 1275 DEB
1 14364U 81053HX  25286.95618668  .00004725  00000-0  20730-2 0  9999
2 14364  82.7754 117.2928 0027883 251.7668 108.0479 14.23251177192550
Epoch: 2025-10-13T22:56Z
TLE epoch observation values (Epoch: 2025-10-13T22:56:54.529Z)
Latitude
-0.00005°
Longitude
110.31406°
Altitude
823.606 km
Speed
7.438 km/s
True Right ascension
07h 49m 10s
True Declination
0° 00' 00"
Sunlit
Object was in daylight at epoch
Visualization orbit readout
Latitude
Unknown
Longitude
Unknown
Altitude
Unknown
Speed
Unknown
Apparent Right ascension
Unknown
Apparent Declination
Unknown
Sunlit
N/A
Visualization observer readout
Local Sidereal Time
02:36:59
Azimuth
Unknown
Elevation
Unknown
Doppler factor
Unknown
Orbital elements
Apogee altitude
831.514 km
Perigee altitude
791.421 km
Semi-major axis
7,189.604 km
Eccentricity
0.00279
Inclination
82.7754°
RAAN
117.2928°
Arg. of periapsis
251.7668°
True anomaly
108.35137°
Mean anomaly
108.0479°
Eccentric anomaly
108.19967°
Mean motion
3.56029 °/min
Orbital period
101.12 mins
BSTAR
0.002073
Loading maneuver chart data...
Computing Atmospheric mass density...
Loading historical data...
Loading historical data...
Loading historical data...
Loading historical data...
Loading historical data...
Loading historical data...
Loading historical data...

Documentation

Showing up to 5 results
|